GW7237 Weather Reports


time (UTC)temp
C
wind
direction
speed
KPH
gust
KPH
rain 1hr
cm
rain 24hr
cm
rain mn
cm
humidity
%
barometer
mb
20260504070221 11 209 0.0 0.0 0.00 0.00 0.00 39 1010.8
20260504060212 10 210 0.0 0.0 0.00 0.00 0.00 43 1011.1
20260504050637 12 198 0.0 1.6 0.00 0.00 0.00 36 1011.5
20260504050132 12 196 0.0 3.2 0.00 0.00 0.00 36 1011.5
20260504045625 12 210 0.0 3.2 0.00 0.00 0.00 36 1011.5
20260504045120 12 189 0.0 3.2 0.00 0.00 0.00 36 1011.5
20260504044614 12 185 0.0 3.2 0.00 0.00 0.00 36 1011.5
20260504044108 12 186 0.0 3.2 0.00 0.00 0.00 36 1011.6
20260504043602 12 142 0.0 0.0 0.00 0.00 0.00 36 1011.6
20260504043056 12 62 0.0 0.0 0.00 0.00 0.00 36 1011.7
20260504042550 12 62 0.0 0.0 0.00 0.00 0.00 36 1011.7
20260504041538 12 61 0.0 0.0 0.00 0.00 0.00 38 1011.9
20260504041033 12 61 0.0 0.0 0.00 0.00 0.00 39 1011.9
20260504040526 12 61 0.0 0.0 0.00 0.00 0.00 38 1011.9
20260504040021 12 61 0.0 0.0 0.00 0.00 0.00 38 1012.0
20260504035514 11 61 0.0 0.0 0.00 0.00 0.00 39 1012.0
20260504035008 11 61 0.0 0.0 0.00 0.00 0.00 40 1012.0
20260504034502 11 61 0.0 0.0 0.00 0.00 0.00 40 1012.0
20260504033451 11 61 0.0 1.6 0.00 0.00 0.00 42 1012.0
20260504032945 12 61 0.0 1.6 0.00 0.00 0.00 40 1011.9
20260504032438 12 61 0.0 1.6 0.00 0.00 0.00 37 1012.0
20260504031933 12 61 0.0 1.6 0.00 0.00 0.00 38 1011.9
20260504031426 12 62 0.0 1.6 0.00 0.00 0.00 38 1011.9
20260504030414 12 62 0.0 0.0 0.00 0.00 0.00 39 1011.9
20260504025402 13 62 0.0 0.0 0.00 0.00 0.00 38 1011.7
20260504024350 13 62 0.0 0.0 0.00 0.00 0.00 35 1011.7
20260504023844 13 62 0.0 0.0 0.00 0.00 0.00 35 1011.7
20260504023341 14 62 0.0 0.0 0.00 0.00 0.00 36 1011.7
20260504022838 14 62 0.0 0.0 0.00 0.00 0.00 33 1011.7
20260504022338 14 62 0.0 1.6 0.00 0.00 0.00 32 1011.6
20260504021336 15 62 0.0 1.6 0.00 0.00 0.00 31 1011.6
20260504020834 15 62 0.0 1.6 0.00 0.00 0.00 30 1011.5
20260504020334 15 62 0.0 1.6 0.00 0.00 0.00 30 1011.5
20260504015333 15 355 0.0 8.0 0.00 0.00 0.00 30 1011.4
20260504014832 16 19 0.0 8.0 0.00 0.00 0.00 29 1011.4
20260504014330 16 317 0.0 1.6 0.00 0.00 0.00 29 1011.4
20260504013833 16 300 0.0 1.6 0.00 0.00 0.00 28 1011.4
20260504013328 16 300 0.0 1.6 0.00 0.00 0.00 27 1011.2
20260504012827 16 300 0.0 8.0 0.00 0.00 0.00 26 1011.4
20260504012327 16 293 1.6 12.9 0.00 0.00 0.00 25 1011.4
20260504011825 17 311 3.2 14.5 0.00 0.00 0.00 25 1011.4
20260504011328 17 295 3.2 20.9 0.00 0.00 0.00 24 1011.5
20260504010826 17 313 3.2 20.9 0.00 0.00 0.00 24 1011.5
20260504010327 17 280 1.6 19.3 0.00 0.00 0.00 25 1011.5
20260504005315 17 298 3.2 14.5 0.00 0.00 0.00 26 1011.5
20260504004809 17 304 1.6 22.5 0.00 0.00 0.00 25 1011.4
20260504003251 17 19 0.0 0.0 0.00 0.00 0.00 24 1011.2
20260504002745 17 323 0.0 0.0 0.00 0.00 0.00 24 1011.1
20260504002240 18 287 0.0 0.0 0.00 0.00 0.00 23 1011.1
20260504001733 18 286 0.0 0.0 0.00 0.00 0.00 21 1011.1
20260504001228 18 306 0.0 0.0 0.00 0.00 0.00 21 1011.1
20260504000721 18 286 0.0 0.0 0.00 0.00 0.00 20 1011.1
20260504000215 18 39 0.0 0.0 0.00 0.00 0.00 20 1011.0
20260503235715 19 44 0.0 4.8 0.00 0.00 0.00 20 1011.1
20260503234215 19 46 0.0 3.2 0.00 0.00 0.00 19 1011.4
20260503233715 19 341 1.6 17.7 0.00 0.00 0.00 19 1011.2
20260503233215 19 281 1.6 17.7 0.00 0.00 0.00 17 1011.4
20260503232715 19 283 1.6 12.9 0.00 0.00 0.00 16 1011.2
20260503231713 20 255 1.6 9.7 0.00 0.00 0.00 16 1011.1
20260503231213 20 273 1.6 19.3 0.00 0.00 0.00 16 1011.1
20260503225711 20 286 1.6 17.7 0.00 0.00 0.00 16 1011.1
20260503225210 20 277 0.0 9.7 0.00 0.00 0.00 16 1011.1
20260503224705 20 260 0.0 9.7 0.00 0.00 0.00 16 1011.1
20260503224210 20 281 0.0 3.2 0.00 0.00 0.00 16 1011.1
20260503223710 20 281 0.0 6.4 0.00 0.00 0.00 18 1011.2
20260503223204 20 304 1.6 6.4 0.00 0.00 0.00 15 1011.2
20260503222658 21 270 1.6 12.9 0.00 0.00 0.00 16 1011.2
20260503222153 21 271 1.6 14.5 0.00 0.00 0.00 16 1011.2
20260503221647 21 34 3.2 27.4 0.00 0.00 0.00 16 1011.4
20260503221141 21 14 3.2 27.4 0.00 0.00 0.00 17 1011.5
20260503220640 21 194 1.6 20.9 0.00 0.00 0.00 16 1011.1
20260503220140 21 319 1.6 16.1 0.00 0.00 0.00 18 1011.6
20260503215641 21 292 3.2 16.1 0.00 0.00 0.00 17 1011.6
20260503215140 20 196 1.6 12.9 0.00 0.00 0.00 17 1011.7
20260503214638 20 315 1.6 11.3 0.00 0.00 0.00 16 1012.0
20260503214137 20 244 1.6 11.3 0.00 0.00 0.00 18 1012.0
20260503213637 20 158 1.6 11.3 0.00 0.00 0.00 16 1012.0
20260503212634 20 200 0.0 3.2 0.00 0.00 0.00 16 1012.1
20260503212134 20 167 0.0 4.8 0.00 0.00 0.00 15 1012.2
20260503211635 20 297 0.0 4.8 0.00 0.00 0.00 17 1012.2
20260503211131 20 258 1.6 11.3 0.00 0.00 0.00 15 1012.3
20260503210631 21 262 3.2 17.7 0.00 0.00 0.00 15 1012.5
20260503205630 21 280 4.8 20.9 0.00 0.00 0.00 16 1012.6
20260503205129 21 132 4.8 20.9 0.00 0.00 0.00 16 1012.6
20260503204129 20 133 3.2 14.5 0.00 0.00 0.00 15 1012.8
20260503203630 20 175 3.2 14.5 0.00 0.00 0.00 17 1012.9
20260503203132 20 130 3.2 16.1 0.00 0.00 0.00 17 1013.1
20260503202626 20 134 3.2 16.1 0.00 0.00 0.00 16 1013.1
20260503201626 19 101 1.6 12.9 0.00 0.00 0.00 17 1013.2
20260503201127 20 143 3.2 17.7 0.00 0.00 0.00 16 1013.3
20260503200625 19 251 3.2 17.7 0.00 0.00 0.00 16 1013.3
20260503200125 20 278 3.2 17.7 0.00 0.00 0.00 15 1013.4
20260503195125 20 263 3.2 16.1 0.00 0.00 0.00 17 1013.6
20260503194627 20 254 1.6 14.5 0.00 0.00 0.00 17 1013.6
20260503194124 20 290 0.0 9.7 0.00 0.00 0.00 14 1013.6
20260503193124 20 304 1.6 6.4 0.00 0.00 0.00 16 1013.7
20260503192621 20 181 1.6 6.4 0.00 0.00 0.00 16 1013.9
20260503192121 20 78 1.6 9.7 0.00 0.00 0.00 16 1013.9
20260503191121 19 302 1.6 8.0 0.00 0.00 0.00 17 1014.2
20260503190622 19 41 1.6 11.3 0.00 0.00 0.00 18 1014.3
20260503190122 19 5 1.6 11.3 0.00 0.00 0.00 18 1014.4
20260503185625 20 298 1.6 11.3 0.00 0.00 0.00 16 1014.5
20260503185118 20 273 1.6 8.0 0.00 0.00 0.00 18 1014.6
20260503184611 20 44 1.6 8.0 0.00 0.00 0.00 18 1014.6
20260503184105 19 329 1.6 12.9 0.00 0.00 0.00 21 1014.8
20260503183054 19 265 1.6 17.7 0.00 0.00 0.00 19 1015.0
20260503182547 18 37 3.2 12.9 0.00 0.00 0.00 22 1015.0
20260503182046 18 10 3.2 12.9 0.00 0.00 0.00 21 1015.1
20260503181545 18 313 3.2 16.1 0.00 0.00 0.00 21 1015.1
20260503181047 18 313 3.2 16.1 0.00 0.00 0.00 21 1015.1
20260503180546 18 263 1.6 16.1 0.00 0.00 0.00 22 1015.3
20260503175545 18 241 1.6 17.7 0.00 0.00 0.00 20 1015.5
20260503174544 18 250 4.8 17.7 0.00 0.00 0.00 22 1015.6
20260503172539 17 238 4.8 22.5 0.00 0.00 0.00 23 1016.0
20260503171538 17 246 3.2 20.9 0.00 0.00 0.00 22 1016.3
20260503171036 17 281 3.2 20.9 0.00 0.00 0.00 22 1016.3
20260503170535 17 254 3.2 14.5 0.00 0.00 0.00 22 1016.3
20260503150831 15 208 0.0 1.6 0.00 0.00 0.00 30 1016.8
20260503140213 12 214 0.0 1.6 0.00 0.00 0.00 34 1017.0
20260503131112 11 249 0.0 3.2 0.00 0.00 0.00 37 1017.0
20260503130606 11 249 1.6 3.2 0.00 0.00 0.00 37 1017.0
20260503110342 8 205 0.0 0.0 0.00 0.00 0.00 38 1016.1
20260503090302 9 220 0.0 1.6 0.00 0.00 0.00 36 1016.5
20260503081256 6 202 0.0 1.6 0.00 0.00 0.00 45 1016.6
20260503080757 6 202 0.0 1.6 0.00 0.00 0.00 45 1016.6
20260503072756 10 179 1.6 8.0 0.00 0.00 0.00 34 1016.7
20260503071757 10 173 1.6 6.4 0.00 0.00 0.00 33 1016.8
20260503070758 10 195 1.6 8.0 0.00 0.00 0.00 33 1016.8